#timestamp,LO_Frequency,Hit,StdDev 
1676577615.7,286047004.2,Y
1676577635.6,286047002.5,P
1676577655.4,286047001.7,P
1676577675.2,286047000.8,N
1676577695.1,286046998.3,N
1676577696.0,286046998.3,N
1676577715.8,286046996.8,N
1676577735.6,286046995.2,N
1676577755.5,286046997.1,N
1676577775.3,286047001.1,N
1676577795.2,286047000.8,N
1676577815.9,286046999.3,N
1676577835.7,286046996.7,N
1676577855.6,286046996.6,N
1676577875.4,286046999.2,N
1676577895.3,286047000.4,N
1676577915.1,286047000.4,N
1676577916.0,286047000.4,N
1676577935.8,286046996.6,N
1676577955.7,286046999.2,N
1676577975.5,286046999.1,N
1676577995.3,286047001.9,N
1676578015.2,286047001.9,N
1676578035.0,286047002.4,N
1676578035.9,286047002.4,N
1676578055.8,286047001.9,N
1676578075.6,286047003.2,N
1676578095.4,286047002.0,N
1676578115.3,286047001.9,N
1676578135.1,286047001.0,N
1676578155.9,286047000.4,N
1676578175.7,286047000.8,N
1676578195.5,286046998.6,N
1676578215.4,286047000.9,N
1676578235.2,286047000.3,N
1676578255.0,286047001.0,N
1676578255.9,286047001.0,N
1676578275.8,286046998.6,N
1676578295.6,286046998.2,N
1676578315.5,286046998.3,N
1676578335.3,286046996.5,N
1676578355.1,286046999.2,N
1676578375.9,286046997.2,N
1676578395.7,286046996.7,N
1676578415.5,286046996.7,N
1676578435.4,286047000.6,N
1676578455.2,286046998.4,N
1676578475.1,286047000.4,N
1676578476.0,286047000.4,N
1676578495.8,286047000.9,N
1676578515.6,286047000.6,N
1676578535.5,286046999.9,N
1676578555.3,286046998.9,N
1676578575.1,286046999.2,N
1676578595.9,286046998.3,N
1676578615.7,286047000.6,N
1676578635.6,286046998.2,N
1676578655.4,286047002.2,N
1676578675.2,286046998.2,N
1676578695.1,286046995.4,Y
1676578696.0,286046995.4,P
1676578715.8,286046996.6,N
1676578735.7,286046998.5,N
1676578755.5,286047000.7,N
1676578775.3,286047000.2,N
1676578795.2,286047000.4,N
1676578815.0,286047001.0,N
1676578815.9,286047001.0,N
1676578835.7,286046993.7,Y
1676578855.6,286046995.8,P
1676578875.4,286046995.5,N
1676578895.3,286046996.2,N
1676578915.1,286046997.0,N
1676578935.8,286046999.9,N
1676578955.7,286047000.2,N
1676578975.5,286047000.8,N
1676578995.4,286047000.7,N
1676579015.2,286047002.0,N
1676579035.0,286046999.8,N
1676579035.9,286046999.8,N
1676579055.8,286047000.2,N
1676579075.6,286047003.8,N
1676579095.4,286047003.7,N
1676579115.3,286047004.9,N
1676579135.1,286047004.9,N
1676579155.9,286047005.7,N
1676579175.7,286047003.4,N
1676579195.5,286047003.9,N
1676579215.4,286047003.4,N
1676579235.2,286047002.2,N
1676579255.1,286047002.2,N
1676579256.0,286047002.2,N
1676579275.8,286047000.1,N
1676579295.6,286047003.7,N
1676579315.5,286046999.6,N
1676579335.3,286046996.8,N
1676579355.2,286046997.8,N
1676579375.9,286046996.9,N
1676579395.7,286046996.6,N
1676579415.6,286046996.7,N
1676579435.4,286046995.6,N
1676579455.2,286046995.1,N
1676579475.1,286046998.6,N
1676579476.0,286046998.6,N
1676579495.8,286047001.6,N
1676579515.7,286047000.1,N
1676579535.5,286047002.4,N
1676579555.3,286047000.3,N
1676579575.2,286047001.7,N
1676579595.0,286047006.0,N
1676579595.9,286047006.0,N
1676579615.8,286047005.2,N
1676579635.6,286047005.4,N
1676579655.4,286047004.2,N
1676579675.3,286047003.8,N
1676579695.1,286047003.9,N
1676579745.9,286047005.6,E
1676579755.8,286047003.9,N
1676579775.6,286046998.3,P
1676579795.5,286046997.5,N
1676579815.3,286046997.2,N
1676579835.1,286046996.9,N
1676579855.9,286046996.6,N
1676579875.7,286046997.2,N
1676579895.6,286046997.4,N
1676579915.4,286046993.5,N
1676579935.2,286046994.2,N
1676579955.1,286046995.6,N
1676579956.0,286046995.6,N
1676579975.8,286046993.7,N
1676579995.6,286046994.9,N
1676580015.5,286046994.7,N
1676580035.3,286046992.5,Y
1676580055.2,286046998.0,P
1676580075.9,286046997.1,P
1676580095.7,286046999.2,N
1676580115.6,286046999.6,N
1676580135.4,286046999.0,N
1676580155.2,286047002.4,N
1676580175.1,286047000.6,N
1676580176.0,286047000.6,N
1676580195.8,286047002.0,N
1676580215.7,286047002.1,N
1676580235.5,286046999.8,N
1676580255.3,286047002.0,N
1676580275.2,286047001.2,N
1676580295.0,286046999.4,N
1676580295.9,286046999.4,N
1676580315.8,286046996.9,N
1676580335.6,286046999.1,N
1676580355.4,286046995.8,N
1676580375.3,286046994.9,N
1676580395.1,286046995.7,N
1676580415.8,286047001.1,N
1676580435.7,286046999.0,N
1676580455.5,286046998.2,N
1676580475.4,286047004.3,N
1676580495.2,286047001.7,N
1676580515.0,286046999.9,N
1676580515.9,286046999.9,N
1676580535.8,286047001.0,N
1676580555.6,286046997.1,N
1676580575.5,286046997.8,N
1676580595.3,286046999.4,N
1676580615.1,286047000.8,N
1676580635.9,286046999.4,N
1676580655.7,286046998.8,N
1676580675.5,286046998.6,N
1676580695.4,286047002.2,N
1676580715.2,286047002.3,N
1676580735.1,286047000.1,N
1676580736.0,286047000.1,N
1676580755.8,286047000.7,N
1676580775.6,286047000.7,N
1676580795.5,286047001.0,N
1676580815.3,286047002.4,N
1676580835.1,286047002.3,N
1676580855.9,286046999.7,N
1676580875.7,286046999.8,N
1676580895.6,286047002.1,N
1676580915.4,286047000.0,N
1676580935.2,286046999.0,N
1676580955.1,286047001.0,N
1676580956.0,286047001.0,N
1676580975.8,286046998.2,N
1676580995.6,286047000.7,N
1676581015.5,286046998.4,N
1676581035.3,286046999.9,N
1676581055.2,286047001.0,N
1676581075.9,286047000.3,N
1676581095.7,286046998.1,N
1676581115.6,286046998.0,N
1676581135.4,286046995.9,Y
1676581155.3,286046995.1,P
1676581175.1,286046996.7,N
1676581176.0,286046996.7,N
1676581195.8,286046996.7,N
